Simultaneous Nadir Overpasses (SNOs) Predictions

Prediction of SNOs between GOES-17 and METOP-C Satellite Orbit:

Table of predicted SNOs for the next 14.0 days since TLE Epoch: 8/30/2019
Index Date Time (GOES-17) GOES-17 Lat,Lon METOP-C Lat,Lon Distance(km) Time Diff (sec)
1 08/31/2019 18:49:56 0.01,-137.20 0.51,-139.35 245.90 80
2 09/01/2019 18:26:36 0.01,-137.20 -0.60,-134.36 322.84 80
3 09/03/2019 06:48:18 -0.01,-137.19 -0.42,-138.96 202.31 80
4 09/04/2019 06:24:58 -0.01,-137.18 0.69,-133.97 366.12 80
5 09/05/2019 18:46:29 0.02,-137.17 0.30,-138.53 154.15 80
6 09/06/2019 18:23:10 0.02,-137.16 -0.81,-133.53 413.96 80
7 09/08/2019 06:44:50 -0.03,-137.14 -0.26,-138.12 112.25 80
8 09/09/2019 06:21:31 -0.02,-137.13 0.85,-133.13 455.47 80
9 09/10/2019 18:43:02 0.03,-137.11 0.14,-137.69 65.91 80
10 09/13/2019 06:41:23 -0.02,-137.07 -0.10,-137.28 25.62 80




NCC Satellite Simultaneous Nadir Overpasses (SNOs) Prediction Service
